EW1604 Weather Reports


time (UTC)temp
F
wind
direction
speed
knots
gust
knots
rain 1hr
in
rain 24hr
in
rain mn
in
humidity
%
barometer
mb
20260504044527 54 24 0.0 0.0 0.00 0.00 0.00 92 1019.0
20260504043037 54 23 0.0 0.0 0.00 0.00 0.00 91 1019.0
20260504041530 54 23 0.0 0.0 0.00 0.00 0.00 91 1019.0
20260504040026 55 24 0.0 0.0 0.00 0.00 0.00 91 1019.0
20260504034524 55 24 0.0 0.0 0.00 0.00 0.00 90 1019.0
20260504033029 56 24 0.0 0.0 0.00 0.00 0.00 90 1019.0
20260504031524 56 24 0.0 0.0 0.00 0.00 0.00 87 1018.9
20260504030026 57 24 0.0 0.0 0.00 0.00 0.00 87 1019.0
20260504024523 58 23 0.0 0.0 0.00 0.00 0.00 86 1018.8
20260504023026 58 23 0.0 0.0 0.00 0.00 0.00 84 1018.7
20260504021522 59 23 0.0 0.0 0.00 0.00 0.00 81 1018.7
20260504020025 60 23 0.0 0.0 0.00 0.00 0.00 80 1018.6
20260504014529 60 23 0.0 0.0 0.00 0.00 0.00 80 1018.4
20260504013021 60 23 0.0 0.0 0.00 0.00 0.00 77 1018.3
20260504011523 61 23 0.0 0.0 0.00 0.00 0.00 73 1018.1
20260504010019 63 24 0.0 0.0 0.00 0.00 0.00 70 1018.0
20260504004521 64 23 0.0 0.0 0.00 0.00 0.00 67 1018.0
20260504003021 66 23 0.0 0.0 0.00 0.00 0.00 62 1017.8
20260504001518 68 23 0.0 0.0 0.00 0.00 0.00 60 1017.7
20260504000018 70 23 0.0 0.0 0.00 0.00 0.00 57 1017.7
20260503234517 72 103 0.0 0.9 0.00 0.00 0.00 52 1017.6
20260503233015 74 138 0.0 0.9 0.00 0.00 0.00 49 1017.6
20260503231517 76 209 0.0 3.5 0.00 0.00 0.00 46 1017.6
20260503230019 77 104 0.0 1.7 0.00 0.00 0.00 45 1017.7
20260503224516 78 179 0.0 1.7 0.00 0.00 0.00 46 1017.7
20260503223015 77 19 0.0 3.5 0.00 0.00 0.00 44 1017.7
20260503221513 78 140 0.0 3.5 0.00 0.00 0.00 45 1017.7
20260503220122 78 229 0.0 3.5 0.00 0.00 0.00 45 1017.8
20260503214513 79 129 0.9 4.3 0.00 0.00 0.00 36 1017.9
20260503213008 79 9 0.0 2.6 0.00 0.00 0.00 37 1018.1
20260503211507 79 254 0.0 6.1 0.00 0.00 0.00 37 1018.2
20260503210006 78 352 0.0 2.6 0.00 0.00 0.00 35 1018.4
20260503204507 79 298 0.9 3.5 0.00 0.00 0.00 37 1018.6
20260503203003 78 82 0.9 6.1 0.00 0.00 0.00 38 1018.8
20260503201600 78 3 0.0 2.6 0.00 0.00 0.00 37 1019.0
20260503194602 78 221 0.0 3.5 0.00 0.00 0.00 39 1019.7
20260503193056 77 129 0.9 5.2 0.00 0.00 0.00 34 1019.8
20260503191555 77 74 0.0 3.5 0.00 0.00 0.00 41 1019.9
20260503190054 78 217 0.0 3.5 0.00 0.00 0.00 38 1020.1
20260503184603 77 65 0.0 3.5 0.00 0.00 0.00 39 1020.4
20260503183054 76 37 0.0 3.5 0.00 0.00 0.00 40 1020.5
20260503181549 76 249 0.0 6.1 0.00 0.00 0.00 39 1020.9
20260503180100 76 291 0.9 3.5 0.00 0.00 0.00 36 1021.0
20260503174547 76 304 0.0 3.5 0.00 0.00 0.00 36 1021.3
20260503173051 76 254 0.0 4.3 0.00 0.00 0.00 40 1021.5
20260503171544 76 222 0.9 4.3 0.00 0.00 0.00 40 1021.8
20260503130155 59 9 0.0 0.9 0.00 0.00 0.00 80 1021.2
20260503081512 45 214 0.0 0.0 0.00 0.09 0.00 97 1019.5
20260503071611 47 214 0.0 0.0 0.00 0.24 0.00 97 1019.1